This demonstration page uses our WeatherBlox Daily Observations layout. Learn more.

Hourly Observations for May 18, 2019

Temp ( °F °C ) Dew Point ( °F °C ) Humidity (%) Winds ( mph kmh ) Pressure ( in mb ) Visibility ( mi km ) Precip ( " mm )
12:54 am 00:54 Mostly Cloudy 76 24.4 62 16.7 62 62 S 21 33 29.5 999 10 16.0934 0 0
1:54 am 01:54 Mostly Cloudy with Light Rain 72 22.2 59 15 64 64 S 17 28 29.49 999 10 16.0934 0 0.0254
2:02 am 02:02 Cloudy with Nearby Thunderstorms 70 21.1 58 14.4 66 66 SSW 16 26 29.51 999 10 16.0934 0 0.0254
2:20 am 02:20 Cloudy with Light Thunderstorms 67 19.4 58 14.4 73 73 SE 9 15 29.48 998 10 16.0934 0 0.0254
2:35 am 02:35 Cloudy with Light Rain 68 20 59 15 73 73 SW 10 17 29.54 1000 10 16.0934 0 0.0254
2:54 am 02:54 Cloudy with Light Rain 66 18.9 58 14.4 75 75 WSW 24 39 29.57 1002 10 16.0934 0.01 0.254
3:54 am 03:54 Cloudy with Light Rain 65 18.3 60 15.6 84 84 S 14 22 29.57 1002 9 14.48406 0.08 2.032
4:54 am 04:54 Cloudy with Light Rain 63 17.2 59 15 87 87 ESE 16 26 29.52 1000 10 16.0934 0.05 1.27
5:54 am 05:54 Clear 65 18.3 56 13.3 73 73 SE 14 22 29.47 998 10 16.0934 0 0.0254
6:54 am 06:54 Sunny 64 17.8 57 13.9 78 78 WNW 10 17 29.49 999 10 16.0934 0 0
7:54 am 07:54 Sunny 66 18.9 57 13.9 73 73 SW 10 17 29.55 1001 10 16.0934 0 0
8:54 am 08:54 Sunny 68 20 56 13.3 65 65 WSW 16 26 29.56 1001 10 16.0934 0 0
9:54 am 09:54 Sunny 70 21.1 57 13.9 64 64 SSW 16 26 29.56 1001 10 16.0934 0 0
10:54 am 10:54 Partly Cloudy 72 22.2 58 14.4 61 61 SW 16 26 29.59 1002 10 16.0934 0 0
11:54 am 11:54 Sunny 73 22.8 59 15 62 62 W 9 15 29.57 1001 10 16.0934 0 0
12:54 pm 12:54 Sunny 70 21.1 58 14.4 66 66 W 8 13 29.57 1002 10 16.0934 0 0
1:54 pm 13:54 Sunny 69 20.6 58 14.4 68 68 WNW 6 9 29.6 1002 10 16.0934 0 0
2:51 pm 14:51 Mostly Cloudy 68 20 57 14 69 69 W 6 9 29.58 1002 10 16.0934 0 0
2:54 pm 14:54 Mostly Cloudy 68 20 57 13.9 68 68 W 6 9 29.58 1002 10 16.0934 0 0
3:54 pm 15:54 Mostly Cloudy 69 20.6 59 15 70 70 SSW 7 11 29.59 1002 10 16.0934 0 0
4:27 pm 16:27 Partly Cloudy 68 20 60 15.6 76 76 S 12 19 29.57 1001 10 16.0934 0 0
4:54 pm 16:54 Sunny 68 20 57 13.9 68 68 S 12 19 29.57 1001 10 16.0934 0 0
5:54 pm 17:54 Mostly Sunny 68 20 57 13.9 68 68 SW 10 17 29.57 1001 10 16.0934 0 0
6:54 pm 18:54 Mostly Cloudy 67 19.4 57 13.9 71 71 SSW 9 15 29.57 1002 10 16.0934 0 0
7:54 pm 19:54 Mostly Cloudy 65 18.3 57 13.9 76 76 S 8 13 29.59 1002 10 16.0934 0 0
8:44 pm 20:44 Cloudy with Nearby Thunderstorms 65 18.3 54 12.2 68 68 SE 6 9 29.6 1003 10 16.0934 0 0
8:54 pm 20:54 Cloudy with Nearby Thunderstorms 65 18.3 54 12.2 68 68 E 9 15 29.61 1003 10 16.0934 0 0.0254
9:05 pm 21:05 Cloudy with Heavy Rain 61 16.1 56 13.3 84 84 NE 7 11 29.62 1003 2.5 4.02335 0.05 1.27
9:13 pm 21:13 Cloudy with Heavy Rain 59 15 56 13.3 90 90 Calm 29.64 1004 1.25 2.011675 0.25 6.35
9:24 pm 21:24 Cloudy with Heavy Rain 59 15 57 13.9 93 93 SSW 5 7 29.64 1004 0.75 1.207005 0.62 15.748
9:54 pm 21:54 Cloudy with Rain 59 15 56 13.3 90 90 Calm 29.65 1004 3 4.82802 1.26 32.004
10:01 pm 22:01 Cloudy with Rain 60 15.6 57 13.9 90 90 S 5 7 29.65 1004 4 6.43736 0.02 0.508
10:54 pm 22:54 Cloudy with Light Rain 61 16.1 55 12.8 81 81 WNW 9 15 29.63 1003 10 16.0934 0.1 2.54
11:54 pm 23:54 Cloudy 60 15.6 56 13.3 86 86 NW 7 11 29.62 1003 10 16.0934 0 0.0254

Powered by AerisWeather